KC2GYU Weather Reports


time (UTC)temp
C
wind
direction
speed
KPH
gust
KPH
rain 1hr
cm
rain 24hr
cm
rain mn
cm
humidity
%
barometer
mb
20260504081754 8 267 0.0 0.0 0.00 0.00 0.00 78 1017.0
20260504081250 8 254 1.6 1.6 0.00 0.00 0.00 77 1016.7
20260504080747 8 262 0.0 1.6 0.00 0.00 0.00 76 1016.9
20260504080243 8 271 0.0 0.0 0.00 0.00 0.00 76 1016.8
20260504070211 7 268 0.0 0.0 0.00 0.00 0.00 82 1016.5
20260504010829 7 268 0.0 0.0 0.00 0.00 0.00 76 1015.1
20260504010324 7 269 0.0 0.0 0.00 0.00 0.00 75 1015.1
20260504005821 8 269 0.0 0.0 0.00 0.00 0.00 75 1015.2
20260504005318 8 269 0.0 0.0 0.00 0.00 0.00 74 1015.0
20260504004816 8 269 0.0 0.0 0.00 0.00 0.00 72 1014.7
20260504004313 8 269 0.0 0.0 0.00 0.00 0.00 70 1014.8
20260504003809 8 269 0.0 0.0 0.00 0.00 0.00 69 1014.9
20260504003307 8 269 0.0 0.0 0.00 0.00 0.00 68 1014.5
20260504002803 8 268 0.0 0.0 0.00 0.00 0.00 67 1014.7
20260504002300 9 268 0.0 0.0 0.00 0.00 0.00 65 1014.4
20260504001758 10 268 0.0 0.0 0.00 0.00 0.00 64 1014.4
20260504001255 10 268 0.0 0.0 0.00 0.00 0.00 62 1014.4
20260504000751 10 268 0.0 0.0 0.00 0.00 0.00 60 1014.4
20260504000248 11 268 0.0 0.0 0.00 0.00 0.00 59 1014.3
20260503235746 11 268 0.0 0.0 0.00 0.00 0.00 56 1014.3
20260503235243 11 268 0.0 0.0 0.00 0.00 0.00 54 1014.3
20260503234741 12 267 0.0 0.0 0.00 0.00 0.00 52 1014.3
20260503234239 12 280 0.0 0.0 0.00 0.00 0.00 52 1014.4
20260503233736 12 272 0.0 0.0 0.00 0.00 0.00 50 1014.5
20260503233231 13 267 0.0 0.0 0.00 0.00 0.00 49 1014.2
20260503232728 13 263 0.0 0.0 0.00 0.00 0.00 48 1014.2
20260503232226 13 267 0.0 1.6 0.00 0.00 0.00 46 1014.0
20260503231724 13 272 0.0 1.6 0.00 0.00 0.00 46 1013.9
20260503231220 13 265 1.6 1.6 0.00 0.00 0.00 43 1014.0
20260503230716 13 261 0.0 1.6 0.00 0.00 0.00 46 1014.1
20260503230214 13 260 1.6 1.6 0.00 0.00 0.00 43 1013.9
20260503225711 14 279 1.6 1.6 0.00 0.00 0.00 43 1013.9
20260503225211 14 270 0.0 0.0 0.00 0.00 0.00 41 1013.9
20260503224709 14 281 1.6 1.6 0.00 0.00 0.00 42 1013.8
20260503224207 14 272 1.6 3.2 0.00 0.00 0.00 42 1013.8
20260503223704 14 258 0.0 0.0 0.00 0.00 0.00 42 1013.9
20260503223201 14 340 3.2 4.8 0.00 0.00 0.00 41 1013.9
20260503222658 15 329 1.6 3.2 0.00 0.00 0.00 42 1013.9
20260503222155 15 268 4.8 8.0 0.00 0.00 0.00 39 1013.8
20260503221654 15 269 0.0 1.6 0.00 0.00 0.00 39 1013.8
20260503221151 15 197 4.8 4.8 0.00 0.00 0.00 40 1013.7
20260503220647 16 246 0.0 1.6 0.00 0.00 0.00 40 1013.6
20260503220144 16 257 3.2 3.2 0.00 0.00 0.00 38 1013.7
20260503215641 15 270 4.8 4.8 0.00 0.00 0.00 38 1013.7
20260503215137 15 285 3.2 4.8 0.00 0.00 0.00 38 1013.7
20260503214637 15 337 4.8 9.7 0.00 0.00 0.00 37 1013.9
20260503214132 15 344 1.6 3.2 0.00 0.00 0.00 38 1013.6
20260503213632 15 316 4.8 8.0 0.00 0.00 0.00 37 1013.7
20260503213128 16 255 3.2 4.8 0.00 0.00 0.00 36 1013.8
20260503212625 16 269 0.0 1.6 0.00 0.00 0.00 38 1013.6
20260503212123 16 297 3.2 3.2 0.00 0.00 0.00 38 1013.4
20260503211620 16 18 3.2 4.8 0.00 0.00 0.00 36 1013.5
20260503211115 15 29 8.0 11.3 0.00 0.00 0.00 37 1013.3
20260503210612 16 201 3.2 4.8 0.00 0.00 0.00 37 1013.6
20260503210108 16 230 8.0 12.9 0.00 0.00 0.00 37 1013.4
20260503205559 16 266 4.8 8.0 0.00 0.00 0.00 36 1013.4
20260503205056 16 3 3.2 3.2 0.00 0.00 0.00 38 1013.5
20260503204552 16 296 3.2 3.2 0.00 0.00 0.00 38 1013.4
20260503204049 16 254 3.2 4.8 0.00 0.00 0.00 36 1013.7
20260503203546 16 284 1.6 1.6 0.00 0.00 0.00 37 1013.3
20260503203043 16 24 6.4 8.0 0.00 0.00 0.00 36 1013.6
20260503202541 16 243 4.8 8.0 0.00 0.00 0.00 37 1013.7
20260503202034 16 78 6.4 8.0 0.00 0.00 0.00 39 1013.5
20260503201532 15 249 1.6 3.2 0.00 0.00 0.00 38 1013.6
20260503201029 15 30 8.0 9.7 0.00 0.00 0.00 36 1013.8
20260503200525 15 291 6.4 8.0 0.00 0.00 0.00 38 1013.6
20260503200022 15 258 4.8 4.8 0.00 0.00 0.00 37 1013.6
20260503195519 15 29 8.0 11.3 0.00 0.00 0.00 37 1013.7
20260503195015 15 259 1.6 3.2 0.00 0.00 0.00 41 1013.6
20260503194513 15 217 3.2 3.2 0.00 0.00 0.00 41 1013.5
20260503194012 15 275 3.2 4.8 0.00 0.00 0.00 39 1013.7
20260503193509 15 294 4.8 9.7 0.00 0.00 0.00 38 1013.7
20260503193004 15 301 1.6 3.2 0.00 0.00 0.00 40 1013.6
20260503192501 15 260 4.8 9.7 0.00 0.00 0.00 38 1013.8
20260503191956 15 287 1.6 1.6 0.00 0.00 0.00 40 1013.8
20260503191454 15 169 1.6 3.2 0.00 0.00 0.00 43 1013.6
20260503190950 15 15 4.8 4.8 0.00 0.00 0.00 41 1014.0
20260503190448 15 201 4.8 8.0 0.00 0.00 0.00 41 1014.0
20260503185945 15 154 4.8 8.0 0.00 0.00 0.00 41 1014.1
20260503185441 15 27 4.8 4.8 0.00 0.00 0.00 40 1014.1
20260503184940 15 276 4.8 4.8 0.00 0.00 0.00 42 1014.2
20260503184437 15 242 8.0 11.3 0.00 0.00 0.00 46 1014.2
20260503183933 15 299 1.6 1.6 0.00 0.00 0.00 46 1014.2
20260503183430 15 242 4.8 9.7 0.00 0.00 0.00 41 1014.2
20260503182927 15 287 4.8 8.0 0.00 0.00 0.00 44 1014.1
20260503182426 15 282 4.8 4.8 0.00 0.00 0.00 44 1014.4
20260503181923 15 248 1.6 1.6 0.00 0.00 0.00 46 1014.3
20260503181420 15 279 4.8 4.8 0.00 0.00 0.00 44 1014.3
20260503180916 14 263 4.8 8.0 0.00 0.00 0.00 44 1014.4
20260503180415 13 283 3.2 3.2 0.00 0.00 0.00 47 1014.2
20260503175911 13 266 1.6 3.2 0.00 0.00 0.00 46 1014.4
20260503175409 14 313 4.8 4.8 0.00 0.00 0.00 44 1014.3
20260503174904 14 13 6.4 8.0 0.00 0.00 0.00 42 1014.3
20260503174403 14 230 3.2 8.0 0.00 0.00 0.00 45 1014.3
20260503173902 13 256 4.8 4.8 0.00 0.00 0.00 43 1014.3
20260503173359 14 259 6.4 8.0 0.00 0.00 0.00 44 1014.3
20260503172856 13 298 3.2 4.8 0.00 0.00 0.00 42 1014.2
20260503172353 13 262 3.2 4.8 0.00 0.00 0.00 43 1014.5
20260503171849 13 298 8.0 11.3 0.00 0.00 0.00 45 1014.5
20260503171346 13 267 3.2 4.8 0.00 0.00 0.00 45 1014.4
20260503170844 13 249 0.0 1.6 0.00 0.00 0.00 48 1014.4
20260503170340 15 54 3.2 3.2 0.00 0.00 0.00 49 1014.6
20260503150732 12 290 1.6 1.6 0.00 0.00 0.00 54 1014.9
20260503150228 11 229 4.8 8.0 0.00 0.00 0.00 54 1014.9
20260503140153 11 284 1.6 3.2 0.00 0.00 0.00 58 1014.8
20260503131117 10 267 0.0 1.6 0.00 0.00 0.00 65 1014.7
20260503130615 8 248 1.6 1.6 0.00 0.00 0.00 67 1014.5
20260503130112 8 228 1.6 3.2 0.00 0.00 0.00 68 1014.6
20260503110505 7 260 1.6 1.6 0.00 0.00 0.00 79 1013.3